| time (UTC) | temp F | wind direction | speed MPH | gust MPH | rain 1hr in | rain 24hr in | rain mn in | humidity % | barometer mb |
| 20260510153031 | 84 | 210 | 3.0 | 3.0 | 0.00 | 0.00 | 0.00 | 36 | 1013.0 |
| 20260510152528 | 84 | 137 | 0.0 | 2.0 | 0.00 | 0.00 | 0.00 | 39 | 1013.0 |
| 20260510152024 | 87 | 115 | 0.0 | 1.0 | 0.00 | 0.00 | 0.00 | 37 | 1013.0 |
| 20260510151521 | 86 | 145 | 0.0 | 2.0 | 0.00 | 0.00 | 0.00 | 37 | 1013.0 |
| 20260510151018 | 86 | 140 | 0.0 | 0.0 | 0.00 | 0.00 | 0.00 | 36 | 1013.1 |
| 20260510150513 | 83 | 138 | 0.0 | 1.0 | 0.00 | 0.00 | 0.00 | 38 | 1013.3 |
| 20260510150010 | 85 | 142 | 0.0 | 2.0 | 0.00 | 0.00 | 0.00 | 37 | 1013.3 |
| 20260510145507 | 88 | 139 | 0.0 | 0.0 | 0.00 | 0.00 | 0.00 | 33 | 1013.0 |
| 20260510145003 | 85 | 141 | 0.0 | 0.0 | 0.00 | 0.00 | 0.00 | 35 | 1013.0 |
| 20260510144500 | 82 | 138 | 0.0 | 1.0 | 0.00 | 0.00 | 0.00 | 36 | 1012.9 |
| 20260510143955 | 82 | 139 | 0.0 | 2.0 | 0.00 | 0.00 | 0.00 | 35 | 1012.8 |
| 20260510143451 | 82 | 139 | 0.0 | 0.0 | 0.00 | 0.00 | 0.00 | 39 | 1012.9 |
| 20260510143351 | 83 | 136 | 0.0 | 4.0 | 0.00 | 0.00 | 0.00 | 39 | 1029.9 |
| 20260510142948 | 82 | 221 | 4.0 | 5.0 | 0.00 | 0.00 | 0.00 | 39 | 1012.9 |
| 20260510142445 | 84 | 169 | 1.0 | 2.0 | 0.00 | 0.00 | 0.00 | 38 | 1012.9 |
| 20260510141941 | 84 | 150 | 1.0 | 2.0 | 0.00 | 0.00 | 0.00 | 41 | 1012.8 |
| 20260510141438 | 84 | 148 | 1.0 | 2.0 | 0.00 | 0.00 | 0.00 | 38 | 1012.7 |
| 20260510140935 | 84 | 143 | 0.0 | 1.0 | 0.00 | 0.00 | 0.00 | 40 | 1012.8 |
| 20260510140432 | 84 | 117 | 1.0 | 1.0 | 0.00 | 0.00 | 0.00 | 44 | 1012.7 |
| 20260510135930 | 81 | 133 | 0.0 | 0.0 | 0.00 | 0.00 | 0.00 | 43 | 1012.6 |
| 20260510135427 | 82 | 125 | 0.0 | 1.0 | 0.00 | 0.00 | 0.00 | 44 | 1012.6 |
| 20260510134924 | 81 | 141 | 0.0 | 0.0 | 0.00 | 0.00 | 0.00 | 47 | 1012.5 |
| 20260510134420 | 84 | 164 | 1.0 | 2.0 | 0.00 | 0.00 | 0.00 | 45 | 1012.5 |
| 20260510133917 | 83 | 134 | 0.0 | 0.0 | 0.00 | 0.00 | 0.00 | 45 | 1012.6 |
| 20260510133413 | 81 | 138 | 0.0 | 0.0 | 0.00 | 0.00 | 0.00 | 49 | 1012.7 |
| 20260510133348 | 82 | 138 | 0.0 | 2.0 | 0.00 | 0.00 | 0.00 | 49 | 1029.7 |
| 20260510132908 | 79 | 135 | 0.0 | 0.0 | 0.00 | 0.00 | 0.00 | 50 | 1012.8 |
| 20260510132407 | 80 | 131 | 0.0 | 0.0 | 0.00 | 0.00 | 0.00 | 51 | 1012.9 |
| 20260510131903 | 76 | 135 | 0.0 | 0.0 | 0.00 | 0.00 | 0.00 | 54 | 1012.8 |
| 20260510131401 | 73 | 148 | 0.0 | 0.0 | 0.00 | 0.00 | 0.00 | 63 | 1012.7 |
| 20260510130857 | 70 | 155 | 1.0 | 2.0 | 0.00 | 0.00 | 0.00 | 71 | 1012.7 |
| 20260510130355 | 66 | 128 | 1.0 | 1.0 | 0.00 | 0.00 | 0.00 | 79 | 1012.5 |
| 20260510125851 | 64 | 141 | 0.0 | 1.0 | 0.00 | 0.00 | 0.00 | 99 | 1012.4 |
| 20260510125347 | 62 | 135 | 0.0 | 1.0 | 0.00 | 0.00 | 0.00 | 99 | 1012.4 |
| 20260510124844 | 61 | 134 | 0.0 | 0.0 | 0.00 | 0.00 | 0.00 | 99 | 1012.4 |
| 20260510124341 | 62 | 142 | 0.0 | 0.0 | 0.00 | 0.00 | 0.00 | 99 | 1012.6 |
| 20260510123837 | 61 | 142 | 0.0 | 0.0 | 0.00 | 0.00 | 0.00 | 99 | 1012.4 |
| 20260510123348 | 61 | 154 | 0.0 | 0.0 | 0.00 | 0.00 | 0.00 | 99 | 1029.6 |
| 20260510123332 | 60 | 151 | 0.0 | 0.0 | 0.00 | 0.00 | 0.00 | 99 | 1012.4 |
| 20260510122829 | 60 | 141 | 0.0 | 0.0 | 0.00 | 0.00 | 0.00 | 99 | 1012.4 |
| 20260510122325 | 60 | 138 | 0.0 | 0.0 | 0.00 | 0.00 | 0.00 | 99 | 1012.3 |
| 20260510121822 | 59 | 138 | 0.0 | 0.0 | 0.00 | 0.00 | 0.00 | 99 | 1012.1 |
| 20260510121319 | 59 | 139 | 0.0 | 0.0 | 0.00 | 0.00 | 0.00 | 99 | 1012.1 |
| 20260510120816 | 58 | 139 | 0.0 | 0.0 | 0.00 | 0.00 | 0.00 | 99 | 1012.1 |
| 20260510120313 | 58 | 137 | 0.0 | 0.0 | 0.00 | 0.00 | 0.00 | 99 | 1012.2 |
| 20260510120121 | 57 | 145 | 0.0 | 0.0 | 0.00 | 0.00 | 0.00 | 99 | 1028.9 |
| 20260510115808 | 58 | 140 | 0.0 | 0.0 | 0.00 | 0.00 | 0.00 | 99 | 1012.1 |
| 20260510115307 | 57 | 143 | 0.0 | 0.0 | 0.00 | 0.00 | 0.00 | 99 | 1011.9 |
| 20260510114802 | 57 | 143 | 0.0 | 0.0 | 0.00 | 0.00 | 0.00 | 99 | 1011.9 |
| 20260510114259 | 57 | 144 | 0.0 | 0.0 | 0.00 | 0.00 | 0.00 | 99 | 1011.9 |
| 20260510113759 | 57 | 144 | 0.0 | 0.0 | 0.00 | 0.00 | 0.00 | 99 | 1011.8 |
| 20260510113257 | 56 | 143 | 0.0 | 0.0 | 0.00 | 0.00 | 0.00 | 99 | 1011.7 |
| 20260510112753 | 56 | 143 | 0.0 | 0.0 | 0.00 | 0.00 | 0.00 | 99 | 1011.7 |
| 20260510112250 | 56 | 144 | 0.0 | 0.0 | 0.00 | 0.00 | 0.00 | 99 | 1011.7 |
| 20260510111746 | 55 | 144 | 0.0 | 0.0 | 0.00 | 0.00 | 0.00 | 99 | 1011.5 |
| 20260510111243 | 55 | 144 | 0.0 | 0.0 | 0.00 | 0.00 | 0.00 | 99 | 1011.2 |
| 20260510110742 | 55 | 144 | 0.0 | 0.0 | 0.00 | 0.00 | 0.00 | 99 | 1011.2 |
| 20260510110241 | 55 | 144 | 0.0 | 0.0 | 0.00 | 0.00 | 0.00 | 99 | 1011.3 |
| 20260510105740 | 55 | 143 | 0.0 | 0.0 | 0.00 | 0.00 | 0.00 | 99 | 1011.2 |
| 20260510105235 | 55 | 149 | 0.0 | 0.0 | 0.00 | 0.00 | 0.00 | 99 | 1011.1 |
| 20260510104732 | 55 | 145 | 0.0 | 0.0 | 0.00 | 0.00 | 0.00 | 99 | 1011.1 |
| 20260510104230 | 55 | 147 | 0.0 | 0.0 | 0.00 | 0.00 | 0.00 | 99 | 1011.0 |
| 20260510103726 | 55 | 147 | 0.0 | 0.0 | 0.00 | 0.00 | 0.00 | 99 | 1010.7 |
| 20260510103346 | 56 | 147 | 0.0 | 1.0 | 0.00 | 0.00 | 0.00 | 99 | 1028.0 |
| 20260510103223 | 55 | 147 | 0.0 | 0.0 | 0.00 | 0.00 | 0.00 | 99 | 1010.8 |
| 20260510102723 | 55 | 148 | 0.0 | 0.0 | 0.00 | 0.00 | 0.00 | 99 | 1010.7 |
| 20260510102218 | 55 | 147 | 0.0 | 0.0 | 0.00 | 0.00 | 0.00 | 99 | 1010.6 |
| 20260510101716 | 55 | 146 | 0.0 | 0.0 | 0.00 | 0.00 | 0.00 | 99 | 1010.7 |
| 20260510101215 | 55 | 149 | 0.0 | 0.0 | 0.00 | 0.00 | 0.00 | 99 | 1010.6 |
| 20260510100710 | 56 | 164 | 0.0 | 0.0 | 0.00 | 0.00 | 0.00 | 99 | 1010.6 |
| 20260510100209 | 56 | 159 | 0.0 | 0.0 | 0.00 | 0.00 | 0.00 | 99 | 1010.4 |
| 20260510095704 | 56 | 160 | 0.0 | 0.0 | 0.00 | 0.00 | 0.00 | 99 | 1010.2 |
| 20260510095159 | 55 | 157 | 0.0 | 1.0 | 0.00 | 0.00 | 0.00 | 99 | 1010.1 |
| 20260510094657 | 55 | 145 | 0.0 | 0.0 | 0.00 | 0.00 | 0.00 | 99 | 1010.1 |
| 20260510094154 | 56 | 145 | 0.0 | 0.0 | 0.00 | 0.00 | 0.00 | 99 | 1010.1 |
| 20260510093650 | 56 | 145 | 0.0 | 0.0 | 0.00 | 0.00 | 0.00 | 99 | 1010.2 |
| 20260510093345 | 57 | 145 | 0.0 | 0.0 | 0.00 | 0.00 | 0.00 | 99 | 1027.2 |
| 20260510093147 | 56 | 145 | 0.0 | 0.0 | 0.00 | 0.00 | 0.00 | 99 | 1010.0 |
| 20260510092643 | 56 | 145 | 0.0 | 0.0 | 0.00 | 0.00 | 0.00 | 99 | 1010.0 |
| 20260510092138 | 56 | 145 | 0.0 | 0.0 | 0.00 | 0.00 | 0.00 | 99 | 1010.1 |
| 20260510091635 | 56 | 147 | 0.0 | 0.0 | 0.00 | 0.00 | 0.00 | 99 | 1010.0 |
| 20260510091131 | 57 | 147 | 0.0 | 0.0 | 0.00 | 0.00 | 0.00 | 99 | 1009.9 |
| 20260510090628 | 57 | 146 | 0.0 | 0.0 | 0.00 | 0.00 | 0.00 | 99 | 1009.9 |
| 20260510090125 | 57 | 149 | 0.0 | 0.0 | 0.00 | 0.00 | 0.00 | 99 | 1010.0 |
| 20260510085620 | 57 | 149 | 0.0 | 0.0 | 0.00 | 0.00 | 0.00 | 99 | 1009.7 |
| 20260510085115 | 57 | 149 | 0.0 | 0.0 | 0.00 | 0.00 | 0.00 | 98 | 1009.6 |
| 20260510084612 | 57 | 144 | 0.0 | 0.0 | 0.00 | 0.00 | 0.00 | 98 | 1009.5 |
| 20260510084108 | 57 | 144 | 0.0 | 0.0 | 0.00 | 0.00 | 0.00 | 98 | 1009.5 |
| 20260510083605 | 57 | 144 | 0.0 | 0.0 | 0.00 | 0.00 | 0.00 | 98 | 1009.6 |
| 20260510083101 | 57 | 141 | 0.0 | 0.0 | 0.00 | 0.00 | 0.00 | 98 | 1009.8 |
| 20260510082558 | 57 | 144 | 0.0 | 0.0 | 0.00 | 0.00 | 0.00 | 97 | 1009.7 |
| 20260510082054 | 57 | 144 | 0.0 | 0.0 | 0.00 | 0.00 | 0.00 | 97 | 1009.7 |
| 20260510081549 | 57 | 144 | 0.0 | 0.0 | 0.00 | 0.00 | 0.00 | 97 | 1009.7 |
| 20260510081045 | 57 | 144 | 0.0 | 0.0 | 0.00 | 0.00 | 0.00 | 97 | 1009.6 |
| 20260510080544 | 57 | 144 | 0.0 | 0.0 | 0.00 | 0.00 | 0.00 | 97 | 1009.6 |
| 20260510080041 | 57 | 144 | 0.0 | 0.0 | 0.00 | 0.00 | 0.00 | 97 | 1009.6 |
| 20260510075539 | 58 | 144 | 0.0 | 0.0 | 0.00 | 0.00 | 0.00 | 96 | 1009.7 |
| 20260510075035 | 58 | 144 | 0.0 | 0.0 | 0.00 | 0.00 | 0.00 | 96 | 1009.6 |
| 20260510074533 | 58 | 144 | 0.0 | 0.0 | 0.00 | 0.00 | 0.00 | 96 | 1009.7 |
| 20260510074028 | 58 | 144 | 0.0 | 0.0 | 0.00 | 0.00 | 0.00 | 96 | 1009.5 |
| 20260510073524 | 59 | 144 | 0.0 | 0.0 | 0.00 | 0.00 | 0.00 | 95 | 1009.5 |
| 20260510073344 | 60 | 144 | 0.0 | 1.0 | 0.00 | 0.00 | 0.00 | 95 | 1026.4 |
| 20260510073022 | 59 | 144 | 0.0 | 0.0 | 0.00 | 0.00 | 0.00 | 95 | 1009.4 |
| 20260510072518 | 59 | 144 | 0.0 | 0.0 | 0.00 | 0.00 | 0.00 | 95 | 1009.3 |
| 20260510072014 | 59 | 144 | 0.0 | 0.0 | 0.00 | 0.00 | 0.00 | 95 | 1009.4 |
| 20260510071510 | 60 | 144 | 0.0 | 0.0 | 0.00 | 0.00 | 0.00 | 94 | 1009.4 |
| 20260510071009 | 60 | 145 | 0.0 | 0.0 | 0.00 | 0.00 | 0.00 | 94 | 1009.5 |
| 20260510070505 | 60 | 145 | 0.0 | 0.0 | 0.00 | 0.00 | 0.00 | 94 | 1009.4 |
| 20260510070001 | 61 | 145 | 0.0 | 0.0 | 0.00 | 0.00 | 0.00 | 94 | 1009.4 |
| 20260510065458 | 61 | 146 | 0.0 | 0.0 | 0.00 | 0.00 | 0.00 | 94 | 1009.4 |
| 20260510064954 | 61 | 148 | 0.0 | 1.0 | 0.00 | 0.00 | 0.00 | 93 | 1009.4 |
| 20260510064451 | 61 | 149 | 0.0 | 0.0 | 0.00 | 0.00 | 0.00 | 93 | 1009.5 |
| 20260510063948 | 62 | 152 | 0.0 | 0.0 | 0.00 | 0.00 | 0.00 | 92 | 1009.4 |
| 20260510063444 | 62 | 151 | 0.0 | 1.0 | 0.00 | 0.00 | 0.00 | 92 | 1009.5 |
| 20260510063349 | 63 | 150 | 0.0 | 2.0 | 0.00 | 0.00 | 0.00 | 92 | 1026.5 |
| 20260510062943 | 62 | 152 | 0.0 | 0.0 | 0.00 | 0.00 | 0.00 | 92 | 1009.3 |
| 20260510062443 | 62 | 156 | 0.0 | 1.0 | 0.00 | 0.00 | 0.00 | 92 | 1009.4 |
| 20260510061938 | 62 | 150 | 0.0 | 0.0 | 0.00 | 0.00 | 0.00 | 91 | 1009.6 |
| 20260510061435 | 62 | 167 | 0.0 | 1.0 | 0.00 | 0.00 | 0.00 | 91 | 1009.5 |
| 20260510060931 | 62 | 151 | 0.0 | 0.0 | 0.00 | 0.00 | 0.00 | 91 | 1009.5 |
| 20260510060428 | 62 | 148 | 0.0 | 0.0 | 0.00 | 0.00 | 0.00 | 91 | 1009.6 |
| 20260510055924 | 62 | 147 | 0.0 | 0.0 | 0.00 | 0.00 | 0.00 | 90 | 1009.8 |
| 20260510055421 | 63 | 147 | 0.0 | 0.0 | 0.00 | 0.00 | 0.00 | 90 | 1009.7 |
| 20260510054919 | 63 | 147 | 0.0 | 0.0 | 0.00 | 0.00 | 0.00 | 89 | 1009.7 |
| 20260510054414 | 63 | 147 | 0.0 | 0.0 | 0.00 | 0.00 | 0.00 | 89 | 1009.6 |
| 20260510053909 | 63 | 156 | 0.0 | 0.0 | 0.00 | 0.00 | 0.00 | 89 | 1009.6 |
| 20260510053405 | 63 | 155 | 0.0 | 0.0 | 0.00 | 0.00 | 0.00 | 89 | 1009.8 |
| 20260510053344 | 64 | 147 | 0.0 | 1.0 | 0.00 | 0.00 | 0.00 | 89 | 1026.6 |
| 20260510052901 | 63 | 165 | 0.0 | 0.0 | 0.00 | 0.00 | 0.00 | 89 | 1009.6 |
| 20260510052357 | 63 | 150 | 0.0 | 0.0 | 0.00 | 0.00 | 0.00 | 89 | 1009.8 |
| 20260510051854 | 62 | 157 | 1.0 | 1.0 | 0.00 | 0.00 | 0.00 | 91 | 1009.8 |
| 20260510051350 | 62 | 150 | 0.0 | 0.0 | 0.00 | 0.00 | 0.00 | 92 | 1009.8 |
| 20260510050847 | 62 | 164 | 0.0 | 0.0 | 0.00 | 0.00 | 0.00 | 92 | 1009.7 |
| 20260510050344 | 61 | 161 | 0.0 | 0.0 | 0.00 | 0.00 | 0.00 | 93 | 1009.8 |
| 20260510045841 | 61 | 147 | 0.0 | 0.0 | 0.00 | 0.00 | 0.00 | 92 | 1009.8 |
| 20260510045338 | 61 | 145 | 0.0 | 0.0 | 0.00 | 0.00 | 0.00 | 92 | 1009.8 |
| 20260510044835 | 61 | 144 | 0.0 | 0.0 | 0.00 | 0.00 | 0.00 | 93 | 1009.8 |
| 20260510044332 | 61 | 147 | 0.0 | 0.0 | 0.00 | 0.00 | 0.00 | 93 | 1009.9 |
| 20260510043828 | 60 | 149 | 0.0 | 0.0 | 0.00 | 0.00 | 0.00 | 93 | 1010.0 |
| 20260510043344 | 61 | 145 | 0.0 | 0.0 | 0.00 | 0.00 | 0.00 | 92 | 1026.7 |
| 20260510043324 | 60 | 145 | 0.0 | 0.0 | 0.00 | 0.00 | 0.00 | 92 | 1009.8 |
| 20260510042822 | 60 | 144 | 0.0 | 0.0 | 0.00 | 0.00 | 0.00 | 92 | 1009.8 |
| 20260510042318 | 60 | 143 | 0.0 | 0.0 | 0.00 | 0.00 | 0.00 | 91 | 1009.6 |
| 20260510041814 | 60 | 142 | 0.0 | 0.0 | 0.00 | 0.00 | 0.00 | 91 | 1009.8 |
| 20260510041312 | 60 | 142 | 0.0 | 0.0 | 0.00 | 0.00 | 0.00 | 91 | 1009.7 |
| 20260510040809 | 61 | 143 | 0.0 | 0.0 | 0.00 | 0.00 | 0.00 | 91 | 1009.7 |
| 20260510040305 | 60 | 143 | 0.0 | 0.0 | 0.00 | 0.00 | 0.00 | 91 | 1009.6 |
| 20260510035801 | 60 | 146 | 0.0 | 0.0 | 0.00 | 0.00 | 0.00 | 92 | 1009.8 |
| 20260510035257 | 60 | 143 | 0.0 | 0.0 | 0.00 | 0.00 | 0.00 | 91 | 1009.7 |
| 20260510034752 | 60 | 141 | 0.0 | 0.0 | 0.00 | 0.00 | 0.00 | 91 | 1009.4 |
| 20260510034250 | 60 | 144 | 0.0 | 0.0 | 0.00 | 0.00 | 0.00 | 91 | 1009.7 |
| 20260510033747 | 60 | 143 | 0.0 | 0.0 | 0.00 | 0.00 | 0.00 | 90 | 1009.5 |
| 20260510033345 | 61 | 141 | 0.0 | 0.0 | 0.00 | 0.00 | 0.00 | 90 | 1026.3 |
| 20260510033244 | 60 | 141 | 0.0 | 0.0 | 0.00 | 0.00 | 0.00 | 90 | 1009.5 |
| 20260510032740 | 60 | 138 | 0.0 | 0.0 | 0.00 | 0.00 | 0.00 | 90 | 1009.5 |
| 20260510032237 | 60 | 142 | 0.0 | 0.0 | 0.00 | 0.00 | 0.00 | 90 | 1009.4 |
| 20260510031732 | 60 | 143 | 0.0 | 0.0 | 0.00 | 0.00 | 0.00 | 90 | 1009.5 |
| 20260510031228 | 60 | 143 | 0.0 | 0.0 | 0.00 | 0.00 | 0.00 | 90 | 1009.4 |
| 20260510030727 | 60 | 141 | 0.0 | 0.0 | 0.00 | 0.00 | 0.00 | 90 | 1009.4 |
| 20260510030225 | 60 | 138 | 0.0 | 0.0 | 0.00 | 0.00 | 0.00 | 89 | 1009.5 |
| 20260510025722 | 61 | 146 | 0.0 | 0.0 | 0.00 | 0.00 | 0.00 | 89 | 1009.4 |
| 20260510025220 | 61 | 146 | 0.0 | 0.0 | 0.00 | 0.00 | 0.00 | 88 | 1009.4 |
| 20260510024716 | 61 | 144 | 0.0 | 0.0 | 0.00 | 0.00 | 0.00 | 88 | 1009.3 |
| 20260510024213 | 61 | 145 | 0.0 | 0.0 | 0.00 | 0.00 | 0.00 | 88 | 1009.4 |
| 20260510023708 | 61 | 144 | 0.0 | 0.0 | 0.00 | 0.00 | 0.00 | 87 | 1009.2 |
| 20260510023345 | 62 | 144 | 0.0 | 0.0 | 0.00 | 0.00 | 0.00 | 87 | 1026.1 |
| 20260510023206 | 61 | 144 | 0.0 | 0.0 | 0.00 | 0.00 | 0.00 | 87 | 1009.4 |
| 20260510022702 | 61 | 144 | 0.0 | 0.0 | 0.00 | 0.00 | 0.00 | 86 | 1009.1 |
| 20260510022156 | 61 | 145 | 0.0 | 0.0 | 0.00 | 0.00 | 0.00 | 86 | 1009.1 |
| 20260510021652 | 61 | 148 | 0.0 | 0.0 | 0.00 | 0.00 | 0.00 | 86 | 1009.2 |
| 20260510021149 | 62 | 145 | 0.0 | 0.0 | 0.00 | 0.00 | 0.00 | 85 | 1009.0 |
| 20260510020644 | 62 | 145 | 0.0 | 0.0 | 0.00 | 0.00 | 0.00 | 85 | 1009.0 |
| 20260510020139 | 62 | 146 | 0.0 | 0.0 | 0.00 | 0.00 | 0.00 | 85 | 1008.9 |
| 20260510015635 | 62 | 145 | 0.0 | 0.0 | 0.00 | 0.00 | 0.00 | 85 | 1008.9 |
| 20260510015132 | 62 | 150 | 0.0 | 0.0 | 0.00 | 0.00 | 0.00 | 85 | 1008.7 |
| 20260510014627 | 62 | 143 | 0.0 | 0.0 | 0.00 | 0.00 | 0.00 | 84 | 1008.7 |
| 20260510014125 | 62 | 145 | 0.0 | 0.0 | 0.00 | 0.00 | 0.00 | 84 | 1008.7 |
| 20260510013625 | 62 | 146 | 0.0 | 0.0 | 0.00 | 0.00 | 0.00 | 84 | 1008.5 |
| 20260510013345 | 63 | 147 | 0.0 | 0.0 | 0.00 | 0.00 | 0.00 | 84 | 1025.2 |
| 20260510013121 | 62 | 145 | 0.0 | 0.0 | 0.00 | 0.00 | 0.00 | 83 | 1008.4 |
| 20260510012620 | 63 | 143 | 0.0 | 0.0 | 0.00 | 0.00 | 0.00 | 82 | 1008.4 |
| 20260510012117 | 63 | 143 | 0.0 | 0.0 | 0.00 | 0.00 | 0.00 | 82 | 1008.6 |
| 20260510011616 | 63 | 144 | 0.0 | 0.0 | 0.00 | 0.00 | 0.00 | 81 | 1008.5 |
| 20260510011113 | 63 | 143 | 0.0 | 0.0 | 0.00 | 0.00 | 0.00 | 81 | 1008.6 |
| 20260510010609 | 64 | 143 | 0.0 | 0.0 | 0.00 | 0.00 | 0.00 | 81 | 1008.4 |
| 20260510010107 | 64 | 142 | 0.0 | 0.0 | 0.00 | 0.00 | 0.00 | 81 | 1008.1 |
| 20260510005602 | 64 | 142 | 0.0 | 0.0 | 0.00 | 0.00 | 0.00 | 80 | 1008.2 |
| 20260510005100 | 64 | 144 | 0.0 | 0.0 | 0.00 | 0.00 | 0.00 | 78 | 1008.3 |
| 20260510004557 | 64 | 146 | 0.0 | 0.0 | 0.00 | 0.00 | 0.00 | 78 | 1008.3 |
| 20260510004055 | 65 | 146 | 0.0 | 0.0 | 0.00 | 0.00 | 0.00 | 78 | 1008.3 |
| 20260510003552 | 65 | 147 | 0.0 | 0.0 | 0.00 | 0.00 | 0.00 | 76 | 1008.2 |
| 20260510003346 | 66 | 146 | 0.0 | 0.0 | 0.00 | 0.00 | 0.00 | 76 | 1024.8 |
| 20260510003047 | 65 | 143 | 0.0 | 0.0 | 0.00 | 0.00 | 0.00 | 75 | 1007.9 |
| 20260510002543 | 66 | 142 | 0.0 | 0.0 | 0.00 | 0.00 | 0.00 | 74 | 1008.1 |
| 20260510002040 | 66 | 142 | 0.0 | 0.0 | 0.00 | 0.00 | 0.00 | 73 | 1007.9 |
| 20260510001537 | 67 | 143 | 0.0 | 0.0 | 0.00 | 0.00 | 0.00 | 72 | 1007.9 |
| 20260510001036 | 67 | 143 | 0.0 | 0.0 | 0.00 | 0.00 | 0.00 | 71 | 1007.7 |
| 20260510000530 | 68 | 142 | 0.0 | 0.0 | 0.00 | 0.00 | 0.00 | 70 | 1007.6 |
| 20260510000027 | 68 | 141 | 0.0 | 0.0 | 0.00 | 0.00 | 0.00 | 69 | 1007.7 |
| 20260509235524 | 68 | 138 | 0.0 | 0.0 | 0.00 | 0.00 | 0.00 | 68 | 1007.7 |
| 20260509235021 | 68 | 143 | 0.0 | 0.0 | 0.00 | 0.00 | 0.00 | 68 | 1007.6 |
| 20260509234517 | 69 | 141 | 0.0 | 0.0 | 0.00 | 0.00 | 0.00 | 67 | 1007.4 |
| 20260509234015 | 69 | 141 | 0.0 | 0.0 | 0.00 | 0.00 | 0.00 | 67 | 1007.5 |
| 20260509233512 | 70 | 141 | 0.0 | 0.0 | 0.00 | 0.00 | 0.00 | 66 | 1007.3 |
| 20260509233344 | 71 | 141 | 0.0 | 0.0 | 0.00 | 0.00 | 0.00 | 66 | 1024.0 |
| 20260509233010 | 70 | 142 | 0.0 | 0.0 | 0.00 | 0.00 | 0.00 | 65 | 1007.4 |
| 20260509232506 | 71 | 143 | 0.0 | 0.0 | 0.00 | 0.00 | 0.00 | 64 | 1007.4 |
| 20260509232002 | 71 | 141 | 0.0 | 0.0 | 0.00 | 0.00 | 0.00 | 62 | 1007.5 |
| 20260509231459 | 72 | 143 | 0.0 | 0.0 | 0.00 | 0.00 | 0.00 | 61 | 1007.5 |
| 20260509230957 | 73 | 143 | 0.0 | 0.0 | 0.00 | 0.00 | 0.00 | 60 | 1007.4 |
| 20260509230453 | 73 | 140 | 0.0 | 0.0 | 0.00 | 0.00 | 0.00 | 58 | 1007.4 |
| 20260509225950 | 75 | 141 | 0.0 | 0.0 | 0.00 | 0.00 | 0.00 | 56 | 1007.3 |
| 20260509225446 | 75 | 143 | 0.0 | 0.0 | 0.00 | 0.00 | 0.00 | 55 | 1007.4 |
| 20260509224942 | 75 | 145 | 0.0 | 0.0 | 0.00 | 0.00 | 0.00 | 54 | 1007.4 |
| 20260509224437 | 75 | 146 | 0.0 | 0.0 | 0.00 | 0.00 | 0.00 | 52 | 1007.4 |
| 20260509223935 | 75 | 145 | 0.0 | 0.0 | 0.00 | 0.00 | 0.00 | 51 | 1007.4 |
| 20260509223431 | 75 | 147 | 0.0 | 1.0 | 0.00 | 0.00 | 0.00 | 50 | 1007.4 |
| 20260509223345 | 76 | 147 | 0.0 | 8.0 | 0.00 | 0.00 | 0.00 | 50 | 1024.0 |
| 20260509222929 | 75 | 155 | 1.0 | 1.0 | 0.00 | 0.00 | 0.00 | 51 | 1007.4 |
| 20260509222424 | 75 | 156 | 0.0 | 1.0 | 0.00 | 0.00 | 0.00 | 50 | 1007.3 |
| 20260509221920 | 75 | 165 | 0.0 | 2.0 | 0.00 | 0.00 | 0.00 | 49 | 1007.1 |
| 20260509221417 | 75 | 156 | 0.0 | 2.0 | 0.00 | 0.00 | 0.00 | 50 | 1007.2 |
| 20260509220913 | 76 | 145 | 0.0 | 0.0 | 0.00 | 0.00 | 0.00 | 52 | 1007.0 |
| 20260509220408 | 76 | 159 | 0.0 | 0.0 | 0.00 | 0.00 | 0.00 | 50 | 1007.1 |
| 20260509215904 | 76 | 165 | 1.0 | 1.0 | 0.00 | 0.00 | 0.00 | 49 | 1007.2 |
| 20260509215400 | 76 | 153 | 0.0 | 3.0 | 0.00 | 0.00 | 0.00 | 48 | 1007.1 |
| 20260509214858 | 76 | 151 | 1.0 | 5.0 | 0.00 | 0.00 | 0.00 | 47 | 1007.2 |
| 20260509214355 | 77 | 173 | 4.0 | 5.0 | 0.00 | 0.00 | 0.00 | 46 | 1007.2 |
| 20260509213852 | 78 | 190 | 2.0 | 8.0 | 0.00 | 0.00 | 0.00 | 47 | 1006.9 |
| 20260509213347 | 77 | 169 | 1.0 | 1.0 | 0.00 | 0.00 | 0.00 | 47 | 1007.1 |
| 20260509213345 | 78 | 160 | 1.0 | 10.0 | 0.00 | 0.00 | 0.00 | 49 | 1023.8 |
| 20260509212845 | 78 | 165 | 1.0 | 1.0 | 0.00 | 0.00 | 0.00 | 46 | 1006.9 |
| 20260509212343 | 80 | 163 | 2.0 | 3.0 | 0.00 | 0.00 | 0.00 | 44 | 1006.9 |
| 20260509211838 | 81 | 186 | 1.0 | 3.0 | 0.00 | 0.00 | 0.00 | 43 | 1006.8 |
| 20260509211334 | 82 | 148 | 1.0 | 5.0 | 0.00 | 0.00 | 0.00 | 41 | 1006.8 |
| 20260509210831 | 80 | 176 | 0.0 | 2.0 | 0.00 | 0.00 | 0.00 | 42 | 1006.8 |
| 20260509210329 | 82 | 128 | 2.0 | 3.0 | 0.00 | 0.00 | 0.00 | 41 | 1006.8 |
| 20260509205828 | 82 | 186 | 1.0 | 3.0 | 0.00 | 0.00 | 0.00 | 41 | 1007.1 |
| 20260509205323 | 80 | 234 | 2.0 | 2.0 | 0.00 | 0.00 | 0.00 | 43 | 1006.8 |
| 20260509204820 | 79 | 161 | 1.0 | 5.0 | 0.00 | 0.00 | 0.00 | 45 | 1006.9 |
| 20260509204316 | 81 | 146 | 0.0 | 2.0 | 0.00 | 0.00 | 0.00 | 44 | 1007.0 |
| 20260509203812 | 80 | 185 | 1.0 | 3.0 | 0.00 | 0.00 | 0.00 | 45 | 1006.9 |
| 20260509203345 | 80 | 177 | 1.0 | 8.0 | 0.00 | 0.00 | 0.00 | 46 | 1023.8 |
| 20260509203310 | 79 | 159 | 0.0 | 2.0 | 0.00 | 0.00 | 0.00 | 48 | 1007.0 |
| 20260509202806 | 78 | 167 | 2.0 | 2.0 | 0.00 | 0.00 | 0.00 | 48 | 1007.0 |
| 20260509202306 | 78 | 153 | 0.0 | 5.0 | 0.00 | 0.00 | 0.00 | 48 | 1007.1 |
| 20260509201801 | 79 | 170 | 1.0 | 1.0 | 0.00 | 0.00 | 0.00 | 47 | 1007.2 |
| 20260509201258 | 81 | 159 | 1.0 | 1.0 | 0.00 | 0.00 | 0.00 | 44 | 1007.3 |
| 20260509200754 | 80 | 153 | 0.0 | 1.0 | 0.00 | 0.00 | 0.00 | 46 | 1007.2 |
| 20260509200250 | 80 | 160 | 3.0 | 5.0 | 0.00 | 0.00 | 0.00 | 45 | 1007.2 |
| 20260509195746 | 81 | 243 | 2.0 | 5.0 | 0.00 | 0.00 | 0.00 | 44 | 1007.2 |
| 20260509195242 | 81 | 151 | 3.0 | 3.0 | 0.00 | 0.00 | 0.00 | 44 | 1007.3 |
| 20260509194736 | 81 | 193 | 1.0 | 5.0 | 0.00 | 0.00 | 0.00 | 45 | 1007.4 |
| 20260509194233 | 80 | 171 | 1.0 | 1.0 | 0.00 | 0.00 | 0.00 | 45 | 1007.5 |
| 20260509193730 | 83 | 229 | 4.0 | 8.0 | 0.00 | 0.00 | 0.00 | 41 | 1007.5 |
| 20260509193344 | 82 | 157 | 0.0 | 6.0 | 0.00 | 0.00 | 0.00 | 47 | 1024.1 |
| 20260509193229 | 80 | 261 | 1.0 | 2.0 | 0.00 | 0.00 | 0.00 | 43 | 1007.6 |
| 20260509192726 | 78 | 261 | 2.0 | 3.0 | 0.00 | 0.00 | 0.00 | 47 | 1007.7 |
| 20260509192221 | 76 | 159 | 0.0 | 0.0 | 0.00 | 0.00 | 0.00 | 49 | 1007.7 |
| 20260509191716 | 75 | 153 | 0.0 | 0.0 | 0.00 | 0.00 | 0.00 | 50 | 1007.6 |
| 20260509191213 | 75 | 162 | 0.0 | 0.0 | 0.00 | 0.00 | 0.00 | 51 | 1007.8 |
| 20260509190709 | 76 | 152 | 1.0 | 2.0 | 0.00 | 0.00 | 0.00 | 49 | 1007.8 |
| 20260509190207 | 77 | 145 | 1.0 | 1.0 | 0.00 | 0.00 | 0.00 | 47 | 1008.0 |
| 20260509185704 | 78 | 153 | 1.0 | 2.0 | 0.00 | 0.00 | 0.00 | 46 | 1007.8 |
| 20260509185200 | 78 | 212 | 2.0 | 2.0 | 0.00 | 0.00 | 0.00 | 45 | 1007.9 |
| 20260509184658 | 76 | 152 | 1.0 | 2.0 | 0.00 | 0.00 | 0.00 | 46 | 1008.2 |
| 20260509184155 | 75 | 161 | 2.0 | 2.0 | 0.00 | 0.00 | 0.00 | 47 | 1008.3 |
| 20260509183651 | 76 | 147 | 0.0 | 1.0 | 0.00 | 0.00 | 0.00 | 48 | 1008.1 |
| 20260509183345 | 77 | 151 | 0.0 | 7.0 | 0.00 | 0.00 | 0.00 | 47 | 1025.0 |
| 20260509183146 | 76 | 140 | 1.0 | 1.0 | 0.00 | 0.00 | 0.00 | 46 | 1008.2 |
| 20260509182642 | 77 | 215 | 3.0 | 3.0 | 0.00 | 0.00 | 0.00 | 45 | 1008.4 |
| 20260509182139 | 76 | 170 | 2.0 | 2.0 | 0.00 | 0.00 | 0.00 | 48 | 1008.3 |
| 20260509181637 | 76 | 157 | 1.0 | 1.0 | 0.00 | 0.00 | 0.00 | 45 | 1008.4 |
| 20260509181135 | 78 | 166 | 1.0 | 3.0 | 0.00 | 0.00 | 0.00 | 45 | 1008.3 |
| 20260509180631 | 78 | 167 | 3.0 | 3.0 | 0.00 | 0.00 | 0.00 | 43 | 1008.4 |
| 20260509180127 | 77 | 141 | 2.0 | 2.0 | 0.00 | 0.00 | 0.00 | 46 | 1008.5 |
| 20260509175623 | 76 | 153 | 1.0 | 2.0 | 0.00 | 0.00 | 0.00 | 48 | 1008.6 |
| 20260509175121 | 76 | 174 | 1.0 | 3.0 | 0.00 | 0.00 | 0.00 | 48 | 1008.7 |
| 20260509174616 | 78 | 185 | 2.0 | 2.0 | 0.00 | 0.00 | 0.00 | 47 | 1008.7 |
| 20260509174112 | 77 | 161 | 0.0 | 1.0 | 0.00 | 0.00 | 0.00 | 46 | 1008.7 |
| 20260509173607 | 78 | 167 | 2.0 | 3.0 | 0.00 | 0.00 | 0.00 | 45 | 1008.4 |
| 20260509173344 | 79 | 180 | 1.0 | 7.0 | 0.00 | 0.00 | 0.00 | 47 | 1025.4 |
| 20260509173103 | 78 | 175 | 1.0 | 1.0 | 0.00 | 0.00 | 0.00 | 46 | 1008.5 |
| 20260509172601 | 78 | 153 | 0.0 | 2.0 | 0.00 | 0.00 | 0.00 | 45 | 1008.5 |
| 20260509172056 | 78 | 154 | 1.0 | 2.0 | 0.00 | 0.00 | 0.00 | 43 | 1008.6 |
| 20260509171552 | 77 | 170 | 1.0 | 2.0 | 0.00 | 0.00 | 0.00 | 48 | 1008.7 |
| 20260509171049 | 76 | 159 | 1.0 | 2.0 | 0.00 | 0.00 | 0.00 | 51 | 1008.8 |
| 20260509170545 | 74 | 142 | 1.0 | 2.0 | 0.00 | 0.00 | 0.00 | 48 | 1009.0 |
| 20260509170041 | 75 | 235 | 3.0 | 6.0 | 0.00 | 0.00 | 0.00 | 48 | 1009.2 |
| 20260509165540 | 75 | 161 | 1.0 | 5.0 | 0.00 | 0.00 | 0.00 | 51 | 1009.3 |
| 20260509165035 | 75 | 151 | 1.0 | 1.0 | 0.00 | 0.00 | 0.00 | 50 | 1009.5 |
| 20260509164532 | 75 | 161 | 1.0 | 2.0 | 0.00 | 0.00 | 0.00 | 48 | 1009.6 |
| 20260509164027 | 76 | 172 | 1.0 | 3.0 | 0.00 | 0.00 | 0.00 | 48 | 1009.7 |
| 20260509163525 | 76 | 204 | 2.0 | 5.0 | 0.00 | 0.00 | 0.00 | 49 | 1009.4 |
| 20260509163343 | 77 | 166 | 0.0 | 7.0 | 0.00 | 0.00 | 0.00 | 48 | 1026.3 |
| 20260509163020 | 76 | 150 | 1.0 | 3.0 | 0.00 | 0.00 | 0.00 | 48 | 1009.3 |
| 20260509162518 | 74 | 237 | 1.0 | 2.0 | 0.00 | 0.00 | 0.00 | 50 | 1009.2 |
| 20260509162014 | 73 | 156 | 1.0 | 3.0 | 0.00 | 0.00 | 0.00 | 51 | 1009.4 |
| 20260509161511 | 73 | 253 | 3.0 | 3.0 | 0.00 | 0.00 | 0.00 | 49 | 1009.4 |
| 20260509161011 | 73 | 217 | 4.0 | 5.0 | 0.00 | 0.00 | 0.00 | 51 | 1009.4 |
| 20260509160507 | 75 | 229 | 1.0 | 3.0 | 0.00 | 0.00 | 0.00 | 50 | 1009.3 |
| 20260509160002 | 74 | 203 | 2.0 | 5.0 | 0.00 | 0.00 | 0.00 | 50 | 1009.6 |
| 20260509155459 | 74 | 183 | 1.0 | 2.0 | 0.00 | 0.00 | 0.00 | 51 | 1009.7 |
| 20260509154955 | 76 | 163 | 1.0 | 2.0 | 0.00 | 0.00 | 0.00 | 50 | 1009.8 |
| 20260509154451 | 75 | 160 | 1.0 | 2.0 | 0.00 | 0.00 | 0.00 | 51 | 1009.8 |
| 20260509153949 | 73 | 144 | 1.0 | 2.0 | 0.00 | 0.00 | 0.00 | 52 | 1009.9 |
| 20260509153446 | 73 | 240 | 3.0 | 3.0 | 0.00 | 0.00 | 0.00 | 53 | 1010.0 |
| 20260509153343 | 74 | 160 | 0.0 | 7.0 | 0.00 | 0.00 | 0.00 | 53 | 1026.6 |